QPF
0.01 0.01 0.01 0.01 0.01 0.01 0.02 0.02 0.02 0.03 0.04 0.04 0.02 0.03 0.03 0.02 0.02 0.01 0.02 0.03 0.04 0.05 0.06 0.09 0.13 0.10 0.07 0.03 0.02 0.03 0.04 0.04 0.03 0.03 0.03 0.04 0.04 0.04 0.04 0.03 0.03 0.04 0.05
0.01 0.01 0.01 0.01 0.01 0.01 0.02 0.03 0.03 0.04 0.04 0.03 0.03 0.04 0.03 0.02 0.02 0.01 0.01 0.02 0.02 0.03 0.05 0.07 0.06 0.05 0.03 0.02 0.02 0.03 0.04 0.04 0.04 0.04 0.05 0.05 0.05 0.04 0.04 0.04 0.04 0.03 0.04
0.01 0.01 0.01 0.00 0.01 0.01 0.01 0.02 0.02 0.04 0.05 0.05 0.05 0.05 0.03 0.02 0.02 0.02 0.02 0.02 0.01 0.02 0.03 0.06 0.10 0.08 0.06 0.05 0.04 0.05 0.05 0.05 0.05 0.05 0.06 0.09 0.12 0.05 0.04 0.04 0.04 0.04 0.04
0.01 0.01 0.01 0.01 0.01 0.01 0.01 0.01 0.02 0.03 0.04 0.05 0.05 0.04 0.04 0.05 0.03 0.02 0.02 0.02 0.02 0.02 0.01 0.04 0.08 0.10 0.09 0.10 0.11 0.12 0.11 0.11 0.09 0.08 0.08 0.18 0.25 0.09 0.05 0.04 0.03 0.04 0.04
0.02 0.01 0.01 0.01 0.01 0.01 0.01 0.01 0.01 0.03 0.03 0.03 0.04 0.03 0.04 0.05 0.04 0.04 0.03 0.01 0.01 0.02 0.01 0.01 0.03 0.05 0.09 0.11 0.13 0.10 0.09 0.09 0.08 0.08 0.08 0.21 0.33 0.20 0.09 0.04 0.03 0.03 0.03
0.02 0.02 0.01 0.00 0.00 0.00 0.00 0.00 0.01 0.01 0.01 0.02 0.03 0.02 0.02 0.03 0.03 0.03 0.03 0.02 0.01 0.01 0.00 0.01 0.01 0.02 0.04 0.05 0.04 0.04 0.05 0.06 0.06 0.05 0.06 0.15 0.28 0.27 0.13 0.06 0.06 0.05 0.04
0.01 0.01 0.00 0.00 0.00 0.00 0.00 0.01 0.01 0.01 0.01 0.01 0.02 0.01 0.02 0.02 0.02 0.02 0.02 0.02 0.02 0.01 0.01 0.01 0.01 0.01 0.01 0.02 0.02 0.02 0.04 0.06 0.06 0.04 0.05 0.11 0.21 0.27 0.21 0.13 0.08 0.07 0.06
0.01 0.01 0.01 0.00 0.00 0.00 0.00 0.01 0.01 0.01 0.01 0.02 0.01 0.01 0.01 0.01 0.01 0.01 0.01 0.01 0.01 0.01 0.01 0.01 0.00 0.00 0.00 0.01 0.01 0.01 0.02 0.04 0.05 0.06 0.05 0.07 0.15 0.21 0.20 0.15 0.11 0.08 0.08
0.01 0.01 0.00 0.00 0.00 0.01 0.00 0.00 0.00 0.01 0.01 0.01 0.01 0.01 0.01 0.01 0.00 0.01 0.00 0.00 0.01 0.02 0.03 0.02 0.01 0.00 0.00 0.00 0.00 0.00 0.00 0.02 0.04 0.06 0.05 0.05 0.08 0.12 0.13 0.12 0.11 0.10 0.09
0.00 0.00 0.00 0.00 0.00 0.01 0.01 0.01 0.01 0.00 0.01 0.01 0.01 0.01 0.00 0.00 0.00 0.01 0.00 0.00 0.01 0.03 0.03 0.03 0.02 0.01 0.01 0.00 0.00 0.00 0.00 0.00 0.02 0.04 0.04 0.05 0.06 0.06 0.08 0.09 0.10 0.11 0.11
0.01 0.01 0.00 0.00 0.00 0.00 0.00 0.00 0.00 0.00 0.01 0.00 0.00 0.01 0.01 0.01 0.00 0.01 0.01 0.01 0.01 0.01 0.01 0.01 0.01 0.01 0.01 0.00 0.00 0.01 0.01 0.01 0.01 0.02 0.04 0.05 0.04 0.05 0.06 0.06 0.07 0.08 0.08
0.00 0.01 0.00 0.00 0.00 0.00 0.01 0.01 0.00 0.00 0.00 0.00 0.00 0.00 0.01 0.02 0.02 0.02 0.02 0.01 0.01 0.00 0.00 0.00 0.01 0.01 0.00 0.00 0.01 0.02 0.01 0.01 0.01 0.02 0.02 0.03 0.03 0.03 0.03 0.04 0.05 0.05 0.06
0.01 0.01 0.01 0.00 0.01 0.01 0.01 0.01 0.01 0.00 0.01 0.01 0.00 0.00 0.01 0.01 0.01 0.01 0.01 0.01 0.01 0.00 0.00 0.00 0.01 0.01 0.00 0.00 0.01 0.02 0.01 0.01 0.01 0.01 0.01 0.01 0.01 0.01 0.02 0.03 0.03 0.04 0.06
0.00 0.01 0.00 0.00 0.00 0.00 0.00 0.01 0.01 0.01 0.01 0.01 0.00 0.00 0.00 0.01 0.01 0.00 0.00 0.00 0.00 0.00 0.00 0.00 0.01 0.01 0.00 0.01 0.02 0.02 0.01 0.01 0.01 0.01 0.01 0.00 0.01 0.01 0.01 0.01 0.01 0.01 0.01
0.00 0.00 0.00 0.00 0.00 0.00 0.00 0.01 0.01 0.00 0.00 0.00 0.00 0.01 0.01 0.01 0.01 0.01 0.01 0.01 0.01 0.00 0.00 0.00 0.01 0.01 0.01 0.01 0.02 0.02 0.01 0.01 0.00 0.01 0.01 0.01 0.01 0.01 0.01 0.01 0.01 0.00 0.00
0.00 0.00 0.00 0.00 0.01 0.01 0.00 0.00 0.00 0.00 0.00 0.00 0.00 0.01 0.01 0.00 0.00 0.00 0.00 0.00 0.00 0.00 0.00 0.00 0.01 0.01 0.02 0.03 0.02 0.02 0.02 0.01 0.01 0.00 0.00 0.01 0.01 0.01 0.01 0.01 0.01 0.01 0.00
0.00 0.00 0.00 0.00 0.00 0.00 0.00 0.00 0.01 0.01 0.00 0.00 0.00 0.00 0.00 0.00 0.00 0.00 0.00 0.00 0.00 0.00 0.00 0.01 0.01 0.02 0.04 0.03 0.02 0.02 0.01 0.01 0.01 0.00 0.00 0.00 0.00 0.01 0.01 0.01 0.01 0.01 0.01
0.00 0.00 0.00 0.00 0.00 0.00 0.00 0.00 0.00 0.00 0.00 0.00 0.00 0.00 0.00 0.00 0.00 0.00 0.00 0.00 0.00 0.00 0.00 0.01 0.01 0.03 0.08 0.03 0.01 0.01 0.01 0.01 0.00 0.00 0.00 0.01 0.01 0.00 0.01 0.01 0.01 0.01 0.01
0.00 0.00 0.00 0.00 0.00 0.00 0.00 0.00 0.00 0.00 0.00 0.00 0.01 0.00 0.00 0.00 0.00 0.00 0.00 0.00 0.00 0.00 0.00 0.00 0.01 0.03 0.04 0.03 0.01 0.00 0.00 0.00 0.00 0.00 0.01 0.01 0.01 0.01 0.01 0.01 0.01 0.01 0.00
0.01 0.01 0.01 0.00 0.00 0.00 0.00 0.00 0.00 0.00 0.00 0.00 0.00 0.00 0.00 0.00 0.00 0.00 0.00 0.00 0.00 0.00 0.00 0.00 0.01 0.01 0.01 0.01 0.01 0.01 0.01 0.01 0.00 0.00 0.00 0.00 0.01 0.01 0.01 0.01 0.01 0.01 0.00
0.01 0.01 0.01 0.01 0.01 0.00 0.00 0.00 0.00 0.00 0.00 0.00 0.00 0.00 0.00 0.00 0.00 0.00 0.00 0.00 0.00 0.00 0.00 0.00 0.01 0.02 0.01 0.01 0.01 0.01 0.01 0.01 0.01 0.00 0.00 0.00 0.00 0.00 0.01 0.01 0.01 0.01 0.01
0.02 0.01 0.01 0.01 0.01 0.01 0.01 0.01 0.00 0.00 0.00 0.00 0.00 0.00 0.00 0.00 0.00 0.00 0.00 0.00 0.00 0.01 0.01 0.00 0.00 0.01 0.00 0.01 0.01 0.01 0.01 0.01 0.01 0.01 0.01 0.01 0.00 0.00 0.00 0.00 0.01 0.01 0.01
0.01 0.01 0.01 0.01 0.01 0.01 0.01 0.01 0.01 0.00 0.00 0.00 0.00 0.00 0.00 0.00 0.00 0.00 0.00 0.00 0.00 0.00 0.01 0.01 0.00 0.00 0.00 0.00 0.00 0.00 0.00 0.01 0.01 0.01 0.01 0.01 0.02 0.02 0.01 0.01 0.01 0.01 0.00
0.02 0.01 0.01 0.01 0.01 0.01 0.01 0.01 0.01 0.01 0.01 0.01 0.01 0.00 0.01 0.00 0.00 0.00 0.00 0.00 0.00 0.00 0.00 0.00 0.00 0.00 0.00 0.00 0.00 0.00 0.00 0.00 0.00 0.00 0.01 0.01 0.02 0.02 0.02 0.01 0.01 0.01 0.01
0.03 0.02 0.03 0.03 0.02 0.01 0.02 0.01 0.01 0.01 0.01 0.01 0.01 0.01 0.01 0.00 0.01 0.01 0.00 0.00 0.00 0.00 0.00 0.00 0.00 0.00 0.00 0.00 0.00 0.00 0.00 0.00 0.00 0.00 0.00 0.00 0.01 0.01 0.01 0.01 0.01 0.02 0.01
0.03 0.04 0.04 0.05 0.05 0.03 0.03 0.02 0.01 0.01 0.01 0.01 0.01 0.01 0.01 0.01 0.01 0.01 0.01 0.00 0.00 0.01 0.01 0.00 0.00 0.00 0.00 0.00 0.01 0.00 0.00 0.00 0.00 0.00 0.00 0.00 0.00 0.00 0.00 0.00 0.00 0.01 0.00
MSLP
1016.01 1015.97 1015.87 1015.75 1015.62 1015.51 1015.43 1015.38 1015.34 1015.32 1015.29 1015.24 1015.15 1015.01 1014.80 1014.50 1014.09 1013.56 1012.91 1012.18 1011.40 1010.63 1009.95 1009.42 1009.12 1009.07 1009.27 1009.69 1010.26 1010.91 1011.55 1012.12 1012.59 1012.93 1013.17 1013.34 1013.47 1013.57 1013.67 1013.75 1013.79 1013.77 1013.69
1016.26 1016.22 1016.15 1016.05 1015.94 1015.85 1015.77 1015.72 1015.67 1015.64 1015.59 1015.53 1015.43 1015.28 1015.05 1014.72 1014.26 1013.68 1012.97 1012.17 1011.34 1010.54 1009.84 1009.33 1009.07 1009.08 1009.34 1009.81 1010.42 1011.10 1011.75 1012.32 1012.77 1013.11 1013.34 1013.50 1013.62 1013.72 1013.82 1013.90 1013.94 1013.91 1013.82
1016.47 1016.45 1016.40 1016.34 1016.28 1016.22 1016.17 1016.12 1016.08 1016.03 1015.97 1015.89 1015.78 1015.62 1015.38 1015.04 1014.57 1013.97 1013.24 1012.43 1011.59 1010.79 1010.11 1009.62 1009.38 1009.42 1009.70 1010.19 1010.80 1011.46 1012.09 1012.63 1013.05 1013.35 1013.55 1013.70 1013.81 1013.91 1014.01 1014.09 1014.13 1014.11 1014.02
1016.62 1016.61 1016.60 1016.59 1016.59 1016.58 1016.57 1016.54 1016.49 1016.43 1016.36 1016.27 1016.15 1015.99 1015.76 1015.44 1015.00 1014.43 1013.75 1012.97 1012.16 1011.40 1010.75 1010.29 1010.07 1010.10 1010.37 1010.83 1011.39 1011.99 1012.55 1013.03 1013.39 1013.64 1013.82 1013.94 1014.04 1014.13 1014.23 1014.31 1014.35 1014.34 1014.27
1016.70 1016.70 1016.72 1016.77 1016.83 1016.88 1016.91 1016.90 1016.86 1016.79 1016.71 1016.61 1016.49 1016.35 1016.16 1015.90 1015.53 1015.05 1014.45 1013.76 1013.03 1012.34 1011.74 1011.31 1011.09 1011.10 1011.31 1011.68 1012.16 1012.65 1013.12 1013.50 1013.79 1013.99 1014.12 1014.22 1014.30 1014.39 1014.48 1014.56 1014.61 1014.61 1014.56
1016.73 1016.73 1016.78 1016.88 1016.99 1017.10 1017.16 1017.18 1017.14 1017.07 1016.98 1016.88 1016.78 1016.68 1016.55 1016.38 1016.12 1015.76 1015.29 1014.73 1014.13 1013.52 1012.99 1012.59 1012.36 1012.32 1012.44 1012.71 1013.05 1013.42 1013.76 1014.04 1014.25 1014.39 1014.48 1014.55 1014.61 1014.69 1014.77 1014.85 1014.91 1014.92 1014.89
1016.75 1016.74 1016.81 1016.94 1017.09 1017.23 1017.32 1017.35 1017.33 1017.25 1017.16 1017.07 1017.01 1016.96 1016.91 1016.84 1016.72 1016.51 1016.20 1015.80 1015.33 1014.84 1014.39 1014.01 1013.76 1013.65 1013.68 1013.81 1014.02 1014.24 1014.46 1014.63 1014.76 1014.84 1014.89 1014.94 1014.99 1015.05 1015.13 1015.20 1015.25 1015.27 1015.25
1016.80 1016.78 1016.85 1016.99 1017.16 1017.31 1017.42 1017.46 1017.43 1017.36 1017.28 1017.21 1017.18 1017.19 1017.24 1017.29 1017.30 1017.25 1017.10 1016.86 1016.54 1016.16 1015.78 1015.44 1015.17 1014.99 1014.91 1014.92 1014.99 1015.08 1015.17 1015.25 1015.30 1015.34 1015.36 1015.40 1015.44 1015.49 1015.55 1015.60 1015.64 1015.65 1015.64
1016.94 1016.89 1016.95 1017.09 1017.25 1017.40 1017.50 1017.54 1017.51 1017.44 1017.37 1017.32 1017.34 1017.41 1017.54 1017.69 1017.83 1017.91 1017.92 1017.82 1017.62 1017.35 1017.04 1016.73 1016.45 1016.22 1016.05 1015.95 1015.90 1015.87 1015.87 1015.87 1015.87 1015.88 1015.89 1015.91 1015.94 1015.99 1016.03 1016.06 1016.07 1016.06 1016.03
1017.16 1017.11 1017.15 1017.27 1017.41 1017.54 1017.62 1017.64 1017.61 1017.54 1017.48 1017.46 1017.51 1017.63 1017.82 1018.05 1018.28 1018.47 1018.58 1018.59 1018.50 1018.32 1018.07 1017.79 1017.51 1017.24 1017.02 1016.84 1016.69 1016.59 1016.51 1016.46 1016.43 1016.42 1016.43 1016.45 1016.48 1016.51 1016.53 1016.53 1016.51 1016.47 1016.41
1017.46 1017.41 1017.44 1017.53 1017.64 1017.74 1017.80 1017.80 1017.76 1017.70 1017.65 1017.64 1017.72 1017.87 1018.09 1018.37 1018.65 1018.89 1019.07 1019.15 1019.13 1019.02 1018.82 1018.58 1018.31 1018.03 1017.78 1017.55 1017.35 1017.20 1017.08 1016.99 1016.95 1016.93 1016.94 1016.97 1017.00 1017.02 1017.01 1016.98 1016.92 1016.84 1016.74
1017.79 1017.76 1017.79 1017.86 1017.95 1018.02 1018.05 1018.03 1017.98 1017.92 1017.88 1017.89 1017.97 1018.13 1018.36 1018.64 1018.93 1019.19 1019.39 1019.50 1019.52 1019.45 1019.31 1019.10 1018.85 1018.59 1018.34 1018.09 1017.88 1017.69 1017.55 1017.44 1017.39 1017.37 1017.38 1017.41 1017.44 1017.45 1017.43 1017.37 1017.27 1017.14 1017.01
1018.09 1018.09 1018.14 1018.21 1018.28 1018.32 1018.33 1018.31 1018.25 1018.19 1018.16 1018.18 1018.26 1018.42 1018.63 1018.89 1019.15 1019.38 1019.57 1019.68 1019.72 1019.68 1019.57 1019.41 1019.20 1018.98 1018.74 1018.50 1018.28 1018.08 1017.92 1017.81 1017.74 1017.71 1017.72 1017.74 1017.76 1017.76 1017.73 1017.65 1017.52 1017.36 1017.19
1018.32 1018.37 1018.45 1018.52 1018.59 1018.63 1018.63 1018.59 1018.54 1018.50 1018.47 1018.50 1018.58 1018.72 1018.90 1019.11 1019.32 1019.51 1019.66 1019.75 1019.79 1019.77 1019.70 1019.59 1019.43 1019.25 1019.04 1018.83 1018.61 1018.40 1018.23 1018.08 1017.99 1017.94 1017.93 1017.94 1017.95 1017.94 1017.90 1017.81 1017.67 1017.50 1017.31
1018.45 1018.56 1018.67 1018.77 1018.84 1018.88 1018.89 1018.87 1018.83 1018.80 1018.79 1018.83 1018.90 1019.02 1019.17 1019.33 1019.48 1019.62 1019.73 1019.79 1019.83 1019.82 1019.79 1019.72 1019.62 1019.48 1019.32 1019.12 1018.91 1018.69 1018.48 1018.31 1018.17 1018.08 1018.03 1018.02 1018.02 1018.00 1017.96 1017.87 1017.74 1017.56 1017.37
1018.49 1018.66 1018.81 1018.94 1019.04 1019.09 1019.11 1019.11 1019.10 1019.09 1019.11 1019.15 1019.23 1019.33 1019.45 1019.56 1019.67 1019.76 1019.82 1019.87 1019.89 1019.91 1019.91 1019.88 1019.84 1019.75 1019.62 1019.44 1019.23 1018.99 1018.74 1018.51 1018.32 1018.18 1018.09 1018.03 1018.01 1017.99 1017.95 1017.87 1017.75 1017.59 1017.41
1018.48 1018.70 1018.89 1019.06 1019.18 1019.26 1019.31 1019.33 1019.35 1019.37 1019.41 1019.47 1019.56 1019.65 1019.74 1019.83 1019.89 1019.94 1019.98 1020.01 1020.04 1020.07 1020.10 1020.12 1020.12 1020.07 1019.97 1019.81 1019.59 1019.32 1019.04 1018.76 1018.50 1018.30 1018.15 1018.06 1018.00 1017.97 1017.93 1017.88 1017.78 1017.64 1017.47
1018.49 1018.74 1018.97 1019.16 1019.32 1019.42 1019.50 1019.55 1019.60 1019.65 1019.72 1019.80 1019.89 1019.99 1020.06 1020.12 1020.16 1020.19 1020.20 1020.23 1020.26 1020.31 1020.38 1020.44 1020.47 1020.47 1020.39 1020.24 1020.02 1019.73 1019.41 1019.08 1018.77 1018.51 1018.30 1018.17 1018.08 1018.03 1017.99 1017.94 1017.86 1017.75 1017.59
1018.56 1018.83 1019.08 1019.30 1019.48 1019.61 1019.72 1019.80 1019.88 1019.96 1020.05 1020.15 1020.25 1020.34 1020.41 1020.45 1020.47 1020.48 1020.49 1020.51 1020.55 1020.63 1020.72 1020.81 1020.88 1020.91 1020.87 1020.73 1020.52 1020.22 1019.88 1019.51 1019.16 1018.85 1018.60 1018.43 1018.31 1018.24 1018.19 1018.13 1018.06 1017.94 1017.79
1018.71 1018.99 1019.26 1019.50 1019.69 1019.85 1019.98 1020.08 1020.18 1020.29 1020.40 1020.51 1020.61 1020.70 1020.76 1020.80 1020.81 1020.81 1020.81 1020.83 1020.89 1020.97 1021.09 1021.21 1021.32 1021.38 1021.37 1021.27 1021.07 1020.79 1020.44 1020.06 1019.69 1019.36 1019.08 1018.87 1018.72 1018.62 1018.54 1018.47 1018.37 1018.25 1018.08
1018.93 1019.22 1019.50 1019.75 1019.96 1020.13 1020.28 1020.41 1020.53 1020.64 1020.76 1020.88 1020.99 1021.07 1021.13 1021.16 1021.16 1021.16 1021.16 1021.18 1021.24 1021.34 1021.48 1021.63 1021.77 1021.86 1021.89 1021.83 1021.66 1021.41 1021.09 1020.73 1020.37 1020.03 1019.73 1019.50 1019.32 1019.18 1019.07 1018.95 1018.82 1018.65 1018.45
1019.18 1019.48 1019.77 1020.03 1020.25 1020.45 1020.61 1020.76 1020.89 1021.02 1021.14 1021.26 1021.37 1021.45 1021.50 1021.52 1021.52 1021.52 1021.52 1021.54 1021.61 1021.73 1021.88 1022.05 1022.22 1022.35 1022.42 1022.40 1022.29 1022.09 1021.81 1021.49 1021.15 1020.82 1020.53 1020.27 1020.06 1019.88 1019.72 1019.56 1019.37 1019.15 1018.88
1019.40 1019.72 1020.02 1020.30 1020.54 1020.76 1020.94 1021.10 1021.25 1021.39 1021.52 1021.64 1021.75 1021.83 1021.89 1021.91 1021.91 1021.91 1021.91 1021.95 1022.03 1022.15 1022.32 1022.51 1022.70 1022.86 1022.97 1023.00 1022.94 1022.79 1022.57 1022.30 1021.99 1021.68 1021.40 1021.13 1020.89 1020.67 1020.46 1020.23 1019.98 1019.70 1019.37
1019.56 1019.90 1020.23 1020.53 1020.80 1021.03 1021.24 1021.42 1021.59 1021.75 1021.90 1022.04 1022.16 1022.25 1022.31 1022.35 1022.37 1022.38 1022.40 1022.44 1022.53 1022.66 1022.83 1023.03 1023.24 1023.42 1023.56 1023.62 1023.61 1023.51 1023.33 1023.11 1022.84 1022.55 1022.27 1022.00 1021.73 1021.48 1021.22 1020.93 1020.62 1020.28 1019.90
1019.64 1020.02 1020.38 1020.71 1021.01 1021.28 1021.52 1021.73 1021.93 1022.12 1022.30 1022.46 1022.60 1022.72 1022.82 1022.88 1022.93 1022.96 1023.00 1023.07 1023.16 1023.30 1023.47 1023.67 1023.88 1024.06 1024.21 1024.29 1024.29 1024.22 1024.08 1023.88 1023.63 1023.36 1023.08 1022.80 1022.52 1022.23 1021.93 1021.60 1021.25 1020.85 1020.43
1019.68 1020.11 1020.51 1020.87 1021.21 1021.51 1021.79 1022.04 1022.28 1022.51 1022.73 1022.94 1023.13 1023.30 1023.43 1023.54 1023.63 1023.70 1023.77 1023.86 1023.97 1024.11 1024.27 1024.46 1024.64 1024.81 1024.93 1025.00 1024.99 1024.92 1024.78 1024.59 1024.35 1024.08 1023.80 1023.51 1023.21 1022.90 1022.57 1022.21 1021.83 1021.40 1020.95
Thickness
5724 5723 5722 5721 5720 5719 5718 5718 5717 5716 5716 5715 5715 5715 5715 5715 5716 5718 5719 5721 5723 5725 5727 5728 5730 5730 5731 5732 5733 5734 5736 5737 5739 5740 5742 5743 5744 5745 5746 5747 5748 5749 5750
5723 5722 5720 5719 5718 5717 5716 5715 5714 5713 5712 5712 5711 5711 5711 5711 5712 5713 5714 5716 5718 5719 5722 5723 5725 5726 5726 5727 5728 5730 5731 5733 5735 5736 5738 5740 5740 5741 5742 5743 5744 5745 5746
5722 5721 5719 5717 5716 5715 5714 5712 5711 5710 5709 5708 5707 5707 5707 5707 5708 5709 5710 5711 5713 5714 5716 5718 5719 5720 5721 5722 5723 5725 5726 5728 5730 5732 5734 5736 5736 5737 5738 5739 5740 5741 5741
5721 5719 5717 5715 5714 5713 5711 5709 5708 5706 5704 5704 5703 5703 5703 5704 5704 5705 5706 5707 5708 5709 5711 5712 5713 5714 5716 5717 5718 5720 5722 5724 5726 5728 5729 5731 5732 5734 5735 5736 5736 5737 5737
5719 5717 5715 5713 5712 5711 5709 5708 5705 5703 5701 5700 5700 5699 5699 5699 5700 5701 5701 5702 5703 5704 5705 5707 5708 5709 5710 5712 5713 5715 5717 5719 5721 5722 5724 5725 5727 5729 5731 5732 5732 5732 5732
5717 5715 5713 5712 5711 5709 5706 5705 5702 5701 5699 5698 5698 5696 5695 5695 5696 5697 5697 5698 5699 5700 5701 5702 5703 5704 5705 5706 5708 5709 5712 5714 5715 5716 5718 5719 5721 5724 5727 5727 5727 5726 5726
5715 5713 5711 5710 5708 5706 5704 5703 5700 5698 5695 5696 5693 5690 5690 5692 5692 5692 5693 5694 5695 5696 5696 5697 5698 5699 5700 5701 5702 5704 5706 5708 5709 5711 5712 5713 5715 5718 5720 5720 5720 5720 5720
5713 5711 5710 5708 5707 5704 5702 5701 5699 5695 5694 5694 5691 5686 5682 5683 5686 5689 5689 5690 5691 5692 5693 5693 5694 5694 5695 5696 5697 5698 5700 5702 5704 5705 5706 5707 5709 5711 5713 5713 5713 5713 5714
5711 5710 5708 5707 5705 5703 5701 5700 5699 5696 5692 5692 5692 5688 5681 5677 5679 5683 5685 5686 5687 5687 5688 5689 5690 5690 5691 5692 5692 5693 5695 5696 5698 5699 5700 5701 5703 5704 5706 5706 5707 5707 5708
5708 5708 5707 5705 5704 5702 5700 5700 5698 5697 5694 5691 5691 5690 5688 5685 5679 5676 5679 5682 5683 5684 5684 5685 5685 5686 5687 5687 5688 5689 5690 5691 5692 5693 5694 5695 5696 5698 5699 5699 5700 5700 5701
5706 5706 5705 5704 5702 5701 5699 5698 5697 5696 5694 5692 5690 5689 5687 5685 5682 5677 5673 5675 5678 5680 5681 5681 5682 5683 5683 5684 5684 5684 5685 5685 5686 5687 5688 5688 5689 5691 5692 5692 5693 5694 5694
5703 5703 5703 5702 5701 5699 5698 5697 5696 5695 5693 5692 5690 5689 5686 5684 5681 5677 5673 5671 5672 5675 5677 5678 5679 5679 5680 5680 5680 5680 5680 5681 5681 5682 5682 5682 5683 5684 5685 5685 5686 5687 5687
5700 5700 5701 5700 5699 5698 5697 5696 5695 5693 5692 5691 5689 5688 5687 5685 5684 5680 5675 5671 5669 5671 5673 5675 5676 5676 5676 5676 5676 5676 5676 5676 5676 5676 5676 5676 5677 5677 5678 5678 5678 5678 5678
5700 5700 5699 5699 5698 5697 5696 5695 5693 5692 5691 5689 5688 5686 5685 5684 5683 5681 5677 5672 5667 5665 5667 5669 5672 5673 5673 5673 5673 5672 5672 5671 5671 5671 5671 5671 5671 5670 5670 5670 5670 5670 5670
5700 5699 5698 5697 5696 5695 5694 5693 5691 5689 5688 5687 5686 5684 5683 5682 5681 5680 5678 5675 5669 5662 5661 5664 5667 5670 5669 5669 5668 5668 5668 5667 5666 5666 5666 5665 5665 5664 5664 5663 5663 5662 5662
5699 5698 5696 5695 5694 5693 5692 5690 5688 5687 5686 5684 5683 5682 5680 5679 5678 5677 5676 5674 5671 5666 5659 5661 5662 5665 5665 5665 5664 5664 5663 5662 5662 5661 5660 5660 5659 5658 5657 5656 5656 5655 5654
5698 5696 5695 5694 5692 5691 5690 5688 5686 5685 5683 5681 5680 5679 5677 5677 5675 5674 5673 5671 5668 5665 5659 5658 5659 5660 5660 5660 5659 5659 5658 5657 5656 5656 5655 5654 5653 5652 5651 5650 5649 5648 5647
5697 5695 5694 5692 5690 5689 5687 5685 5683 5682 5680 5678 5677 5675 5674 5674 5672 5670 5668 5666 5664 5662 5658 5654 5654 5654 5655 5654 5653 5653 5652 5652 5651 5650 5649 5648 5646 5645 5644 5643 5642 5640 5639
5695 5694 5692 5690 5689 5687 5685 5683 5682 5680 5678 5676 5674 5673 5671 5669 5667 5665 5664 5662 5659 5658 5654 5651 5648 5648 5648 5648 5647 5646 5646 5645 5645 5644 5642 5641 5639 5638 5637 5635 5634 5632 5630
5692 5691 5689 5688 5687 5685 5683 5681 5679 5677 5675 5673 5672 5670 5668 5666 5664 5662 5660 5657 5655 5652 5649 5646 5643 5641 5640 5640 5639 5637 5636 5636 5636 5636 5634 5633 5631 5630 5629 5628 5626 5624 5622
5691 5689 5687 5685 5684 5683 5681 5679 5677 5674 5672 5669 5668 5667 5665 5664 5662 5660 5657 5653 5650 5646 5643 5639 5637 5634 5633 5631 5630 5629 5628 5627 5627 5627 5626 5625 5624 5623 5621 5620 5617 5615 5613
5687 5685 5683 5682 5680 5680 5678 5677 5674 5671 5668 5666 5663 5662 5661 5660 5658 5656 5654 5652 5648 5643 5638 5635 5631 5628 5627 5626 5624 5623 5620 5618 5617 5619 5616 5616 5615 5613 5612 5611 5609 5607 5605
5684 5682 5680 5678 5677 5676 5676 5673 5671 5668 5664 5661 5659 5657 5656 5655 5653 5650 5648 5646 5644 5641 5638 5633 5628 5625 5623 5622 5619 5617 5613 5611 5610 5610 5608 5606 5606 5604 5604 5602 5600 5598 5596
5680 5678 5676 5675 5673 5673 5672 5669 5667 5663 5660 5657 5654 5652 5650 5648 5647 5645 5642 5639 5636 5634 5632 5629 5626 5623 5620 5618 5615 5612 5608 5605 5604 5602 5600 5596 5596 5594 5595 5593 5591 5589 5586
5676 5674 5673 5671 5668 5667 5667 5665 5662 5657 5654 5651 5649 5647 5646 5643 5642 5639 5636 5632 5628 5626 5625 5622 5620 5616 5614 5611 5608 5604 5600 5597 5593 5592 5590 5587 5586 5585 5584 5583 5581 5579 5576
5673 5671 5668 5666 5664 5662 5662 5660 5657 5653 5648 5645 5643 5641 5640 5638 5636 5633 5629 5625 5620 5617 5615 5613 5610 5607 5605 5602 5599 5596 5592 5587 5584 5581 5581 5577 5575 5573 5572 5572 5570 5567 5565